RYR334K EGSS-EICK

Flight info

Callsign RYR334K
Flight time 0h 59m
Altitude 31000
Route NUGBO M183 SILVA P86 DIDZA N14 OKSAW BIBPE TIGWE FELCA NICXI OFSOX BANBA VAPAL
Aircraft B738/L-V/N

Departure

Time 2026-05-04 16:49
Airport London Stansted Airport (EGSS)

Arrival

Time 2026-05-04 17:48
Airport Cork International Airport (EICK)
Time Latitude Longitude Altitude Speed Heading
2026-05-04 16:26 51.88912 0.25253 351 ft 0 kts 43°
2026-05-04 16:40 51.88906 0.25243 359 ft 4 kts 20°
2026-05-04 16:40 51.88863 0.25224 351 ft 4 kts 347°
2026-05-04 16:41 51.88842 0.25241 356 ft 0 kts 314°
2026-05-04 16:43 51.88864 0.25204 359 ft 10 kts 313°
2026-05-04 16:43 51.88978 0.24950 358 ft 15 kts 282°
2026-05-04 16:43 51.89031 0.24814 359 ft 14 kts 291°
2026-05-04 16:44 51.88584 0.24093 349 ft 26 kts 222°
2026-05-04 16:45 51.88332 0.23718 336 ft 23 kts 223°
2026-05-04 16:46 51.87996 0.23212 335 ft 21 kts 223°
2026-05-04 16:46 51.87788 0.22898 333 ft 20 kts 223°
2026-05-04 16:47 51.87580 0.22586 331 ft 25 kts 223°
2026-05-04 16:47 51.87624 0.22269 321 ft 19 kts 337°
2026-05-04 16:48 51.88106 0.22888 329 ft 120 kts 43°
2026-05-04 16:48 51.88902 0.24081 572 ft 183 kts 43°
2026-05-04 16:49 51.90824 0.27062 2811 ft 193 kts 42°
2026-05-04 16:49 51.93250 0.29765 3794 ft 232 kts 13°
2026-05-04 16:50 51.96428 0.28168 4889 ft 266 kts 308°
2026-05-04 16:50 51.97408 0.22428 7053 ft 268 kts 278°
2026-05-04 16:51 51.97932 0.16371 9074 ft 277 kts 278°
2026-05-04 16:51 51.98231 0.13266 10077 ft 280 kts 279°
2026-05-04 16:51 51.98898 0.06609 11149 ft 319 kts 274°
2026-05-04 16:52 51.98137 -0.00582 12921 ft 328 kts 257°
2026-05-04 16:52 51.97642 -0.04220 13759 ft 335 kts 257°
2026-05-04 16:53 51.96655 -0.11749 15331 ft 347 kts 257°
2026-05-04 16:53 51.95138 -0.23380 17764 ft 358 kts 257°
2026-05-04 16:54 51.94619 -0.27334 18507 ft 362 kts 257°
2026-05-04 16:55 51.92480 -0.43529 21544 ft 372 kts 256°
2026-05-04 16:55 51.91380 -0.51784 22905 ft 377 kts 256°
2026-05-04 16:56 51.90262 -0.60127 24183 ft 382 kts 255°
2026-05-04 16:56 51.88564 -0.72725 26270 ft 379 kts 255°
2026-05-04 16:57 51.88000 -0.76878 26963 ft 378 kts 255°
2026-05-04 16:57 51.86872 -0.85161 28266 ft 376 kts 255°
2026-05-04 16:58 51.85060 -0.97438 30057 ft 371 kts 246°
2026-05-04 16:58 51.83940 -1.01087 30586 ft 369 kts 237°
2026-05-04 16:59 51.80656 -1.07479 31007 ft 367 kts 224°
2026-05-04 17:00 51.73371 -1.19130 31034 ft 373 kts 224°
2026-05-04 17:00 51.67662 -1.28390 31037 ft 406 kts 224°
2026-05-04 17:01 51.63955 -1.35564 31016 ft 428 kts 244°
2026-05-04 17:01 51.63144 -1.45141 31029 ft 452 kts 276°
2026-05-04 17:02 51.65649 -1.54602 31021 ft 469 kts 297°
2026-05-04 17:03 51.70114 -1.68565 31026 ft 464 kts 286°
2026-05-04 17:03 51.71553 -1.83834 31023 ft 459 kts 274°
2026-05-04 17:04 51.72859 -2.02631 31025 ft 458 kts 274°
2026-05-04 17:05 51.74292 -2.23058 31025 ft 458 kts 274°
2026-05-04 17:06 51.75334 -2.38389 31026 ft 458 kts 274°
2026-05-04 17:07 51.76243 -2.52023 31031 ft 459 kts 274°
2026-05-04 17:07 51.77024 -2.63946 31028 ft 460 kts 274°
2026-05-04 17:08 51.78017 -2.79390 31017 ft 462 kts 274°
2026-05-04 17:09 51.78671 -2.89720 31018 ft 464 kts 274°
2026-05-04 17:09 51.79318 -3.00100 31023 ft 465 kts 274°
2026-05-04 17:10 51.80907 -3.26212 31032 ft 470 kts 274°
2026-05-04 17:11 51.81528 -3.36730 31025 ft 471 kts 274°
2026-05-04 17:12 51.82455 -3.52626 31018 ft 475 kts 275°
2026-05-04 17:13 51.85720 -3.78873 31010 ft 475 kts 282°
2026-05-04 17:14 51.87657 -3.93663 30991 ft 423 kts 281°
2026-05-04 17:14 51.88239 -3.98251 30989 ft 409 kts 281°
2026-05-04 17:14 51.89341 -4.07000 30987 ft 389 kts 281°
2026-05-04 17:15 51.89880 -4.11306 31005 ft 393 kts 281°
2026-05-04 17:16 51.92063 -4.28831 30995 ft 395 kts 281°
2026-05-04 17:17 51.94206 -4.46239 31001 ft 394 kts 281°
2026-05-04 17:18 51.96332 -4.63752 31005 ft 398 kts 281°
2026-05-04 17:19 51.98448 -4.81410 31006 ft 402 kts 281°
2026-05-04 17:20 52.00556 -4.99228 31005 ft 403 kts 282°
2026-05-04 17:20 52.02119 -5.12605 31008 ft 404 kts 282°
2026-05-04 17:21 52.02821 -5.21660 31012 ft 406 kts 268°
2026-05-04 17:21 52.02236 -5.30793 31019 ft 408 kts 263°
2026-05-04 17:22 52.01531 -5.39955 31019 ft 410 kts 264°
2026-05-04 17:23 52.00514 -5.53780 30156 ft 412 kts 264°
2026-05-04 17:23 52.00182 -5.58387 29773 ft 409 kts 264°
2026-05-04 17:23 51.99522 -5.67498 29033 ft 403 kts 264°
2026-05-04 17:24 51.99194 -5.72005 28659 ft 401 kts 264°
2026-05-04 17:24 51.98212 -5.85332 27531 ft 393 kts 264°
2026-05-04 17:25 51.97884 -5.89726 27160 ft 390 kts 264°
2026-05-04 17:25 51.97232 -5.98399 26408 ft 385 kts 264°
2026-05-04 17:26 51.96583 -6.06966 25685 ft 380 kts 263°
2026-05-04 17:26 51.95611 -6.19638 24419 ft 377 kts 263°
2026-05-04 17:27 51.95044 -6.28087 23478 ft 377 kts 266°
2026-05-04 17:27 51.94709 -6.36548 22531 ft 376 kts 266°
2026-05-04 17:28 51.94392 -6.45002 21540 ft 376 kts 266°
2026-05-04 17:29 51.93873 -6.57666 20046 ft 374 kts 266°
2026-05-04 17:29 51.93327 -6.70248 18553 ft 372 kts 266°
2026-05-04 17:30 51.92772 -6.82729 17055 ft 368 kts 266°
2026-05-04 17:31 51.92398 -6.90960 16058 ft 365 kts 266°
2026-05-04 17:31 51.91831 -7.03186 14559 ft 360 kts 266°
2026-05-04 17:32 51.91450 -7.11243 13561 ft 357 kts 266°
2026-05-04 17:33 51.90876 -7.23179 12067 ft 352 kts 266°
2026-05-04 17:33 51.90684 -7.27125 11571 ft 350 kts 266°
2026-05-04 17:34 51.90107 -7.38811 10077 ft 344 kts 266°
2026-05-04 17:34 51.89914 -7.42653 9570 ft 341 kts 266°
2026-05-04 17:35 51.89340 -7.53968 8124 ft 333 kts 266°
2026-05-04 17:35 51.88959 -7.61369 7362 ft 321 kts 266°
2026-05-04 17:35 51.88773 -7.64955 6977 ft 317 kts 266°
2026-05-04 17:36 51.88585 -7.68491 6606 ft 314 kts 266°
2026-05-04 17:36 51.88406 -7.71990 6225 ft 310 kts 266°
2026-05-04 17:36 51.88224 -7.75452 5865 ft 307 kts 266°
2026-05-04 17:36 51.88041 -7.78863 5564 ft 302 kts 266°
2026-05-04 17:37 51.87652 -7.82162 5234 ft 299 kts 247°
2026-05-04 17:37 51.86535 -7.84962 4965 ft 295 kts 232°
2026-05-04 17:37 51.85240 -7.87505 4662 ft 291 kts 231°
2026-05-04 17:37 51.83947 -7.89971 4492 ft 283 kts 230°
2026-05-04 17:38 51.82699 -7.92353 4233 ft 279 kts 231°
2026-05-04 17:38 51.81467 -7.94713 4130 ft 270 kts 231°
2026-05-04 17:38 51.80289 -7.96983 4092 ft 258 kts 231°
2026-05-04 17:38 51.79164 -7.99158 4080 ft 246 kts 231°
2026-05-04 17:39 51.77013 -8.03331 4110 ft 238 kts 231°
2026-05-04 17:39 51.75954 -8.05385 4076 ft 240 kts 231°
2026-05-04 17:39 51.74869 -8.07486 3887 ft 244 kts 231°
2026-05-04 17:40 51.73780 -8.09597 3719 ft 245 kts 231°
2026-05-04 17:40 51.72699 -8.11697 3586 ft 242 kts 231°
2026-05-04 17:40 51.71630 -8.13766 3518 ft 238 kts 231°
2026-05-04 17:40 51.70574 -8.15808 3447 ft 236 kts 231°
2026-05-04 17:41 51.69513 -8.17853 3388 ft 239 kts 231°
2026-05-04 17:41 51.68463 -8.19951 3313 ft 242 kts 238°
2026-05-04 17:41 51.67807 -8.22418 3241 ft 239 kts 254°
2026-05-04 17:41 51.67280 -8.24957 3155 ft 240 kts 253°
2026-05-04 17:42 51.66724 -8.27499 3043 ft 240 kts 252°
2026-05-04 17:42 51.66164 -8.30005 2999 ft 234 kts 252°
2026-05-04 17:42 51.65625 -8.32392 2978 ft 218 kts 252°
2026-05-04 17:42 51.65133 -8.34596 2982 ft 201 kts 256°
2026-05-04 17:43 51.65135 -8.36715 2970 ft 188 kts 299°
2026-05-04 17:43 51.65995 -8.38033 3003 ft 162 kts 338°
2026-05-04 17:43 51.66988 -8.38806 2998 ft 157 kts 339°
2026-05-04 17:43 51.67991 -8.39500 3004 ft 158 kts 342°
2026-05-04 17:44 51.69024 -8.40146 3000 ft 160 kts 343°
2026-05-04 17:44 51.70065 -8.40773 2996 ft 160 kts 343°
2026-05-04 17:44 51.71100 -8.41387 2946 ft 160 kts 343°
2026-05-04 17:44 51.72150 -8.42010 2758 ft 164 kts 344°
2026-05-04 17:45 51.73228 -8.42649 2574 ft 168 kts 343°
2026-05-04 17:45 51.74342 -8.43307 2338 ft 173 kts 342°
2026-05-04 17:45 51.75480 -8.43983 2104 ft 176 kts 341°
2026-05-04 17:45 51.76629 -8.44663 1859 ft 172 kts 339°
2026-05-04 17:46 51.77706 -8.45302 1630 ft 158 kts 337°
2026-05-04 17:46 51.78668 -8.45875 1413 ft 142 kts 340°
2026-05-04 17:46 51.79604 -8.46438 1181 ft 146 kts 339°
2026-05-04 17:46 51.80549 -8.46987 1050 ft 145 kts 340°
2026-05-04 17:47 51.81482 -8.47542 900 ft 141 kts 343°
2026-05-04 17:47 51.82401 -8.48083 677 ft 140 kts 339°
2026-05-04 17:47 51.83287 -8.48621 500 ft 139 kts 340°
2026-05-04 17:47 51.84069 -8.49075 469 ft 79 kts 339°
2026-05-04 17:48 51.84381 -8.49262 483 ft 40 kts 340°
2026-05-04 17:48 51.84553 -8.49360 485 ft 38 kts 341°
2026-05-04 17:48 51.84664 -8.49398 490 ft 7 kts 341°
2026-05-04 17:48 51.84750 -8.49442 491 ft 8 kts
2026-05-04 17:49 51.84788 -8.49386 485 ft 8 kts 69°
2026-05-04 17:49 51.84803 -8.49305 492 ft 7 kts 69°
2026-05-04 17:49 51.84817 -8.49226 501 ft 7 kts 78°
2026-05-04 17:49 51.84827 -8.49149 502 ft 7 kts 75°
2026-05-04 17:50 51.84838 -8.49099 502 ft 7 kts 69°
2026-05-04 17:50 51.84845 -8.49066 502 ft 2 kts 70°
2026-05-04 17:50 51.84848 -8.49052 502 ft 0 kts 70°